EUTELSAT 25B (39233 NORAD) Tracking and Keplerian Element Data

This shows tracking and keplerian element data for the satellite.

Feedback or suggestion? Click here.




ElementValue
Catalog39233
NameEUTELSAT 25B
Epoch Orbit2070
Epoch Day112.82051991
Epoch Year2019
RAAN29.0099
Inclination0.0562
Eccentricity0.0001933
Argument of Perigee10.8038
Mean Anonmoly131.6078
Mean Motion1.00272095
Decay Rate1.27E-06
L11 39233U 13044A 19112.82051991 .00000127 00000-0 00000+0 0 9990
L22 39233 0.0562 29.0099 0001933 10.8038 131.6078 1.00272095 20701

Live tracking and technical data element details for EUTELSAT 25B (NORAD 39233). EUTELSAT 25B can be tracked NOW for your location showing map with azimuth and elevation plus other details from your city location.

Track the satellite on the map from your city or location and see movement details for azimuth, elevation, latitude, longitude, range, height, and movement on the map or in text.







IsCatalogInMostPopularTable: catalog: 39233, numindb: 791
Update: records affected: 1



GetName: 39233 EUTELSAT 25B

Hit Count: updated at: Tue, 23 Apr 2019 20:47:27 GMT